Casper, WY

3:15 PM MDT on May 28, 2017 (GMT -0600)
Natrona County International

Weather History for KCPR - May, 2013

Change the Weather History Date:

Friday, May 17, 2013

  Actual Average Record
Temperature  
Mean Temperature 63 °F 52 °F  
Max Temperature 81 °F 67 °F 87 °F (1948)
Min Temperature 45 °F 38 °F 28 °F (1986)
Degree Days  
Heating Degree Days 2 13  
Month to date heating degree days 200 257  
Since 1 July heating degree days 7063 7299  
Cooling Degree Days 0 0  
Month to date cooling degree days 10 0  
Year to date cooling degree days 10 0  
Growing Degree Days 14 (Base 50)    
Moisture  
Dew Point 42 °F    
Average Humidity 56    
Maximum Humidity 100    
Minimum Humidity 12    
Precipitation  
Precipitation 0.08 in 0.07 in 2.22 in (2000)
Month to date precipitation 0.29 1.10  
Year to date precipitation 4.45 4.29  
Snow  
Snow 0.00 in 0.00 in - ()
Month to date snowfall 3.5 2.4  
Since 1 July snowfall 85.7 74.3  
Snow Depth 0.00 in    
Sea Level Pressure  
Sea Level Pressure 29.73 in    
Wind  
Wind Speed 9 mph (West)    
Max Wind Speed 31 mph    
Max Gust Speed 39 mph    
Visibility 9 miles    
Events Rain    
T = Trace of Precipitation, MM = Missing Value Source: NWS Daily Summary

Daily Weather History Graph

Daily Weather History Graph

Search for Another Location

Airport or City:

Trip Planner

Search our weather history database for the weather conditions in past years. The results will help you decide how hot, cold, wet, or windy it might be!

Date:

Astronomy

May. 17, 2013 Rise Set
Actual Time 5:40 AM MDT 8:24 PM MDT
Civil Twilight 5:07 AM MDT 8:57 PM MDT
Nautical Twilight 4:26 AM MDT 9:38 PM MDT
Astronomical Twilight 3:39 AM MDT 10:26 PM MDT
Moon 12:20 PM MDT (5/17) 1:14 AM MDT (5/17)
Length of Visible Light 15h 49m
Length of Day
14h 43m
Waxing Crescent, 46% of the Moon is Illuminated
May 17
Waxing Crescent
May 17
First Quarter
May 24
Full
May 31
Last Quarter
Jun 8
New

Hourly Weather History & Observations

Time (MDT) Temp. Windchill Dew Point Humidity Pressure Visibility Wind Dir Wind Speed Gust Speed Precip Events Conditions
12:53 AM 57.9 °F - 45.0 °F 62% 29.70 in 10.0 mi East 10.4 mph - 0.00 in   Overcast
1:53 AM 54.0 °F - 48.0 °F 80% 29.77 in 2.0 mi NW 9.2 mph - 0.05 in Rain Rain
2:02 AM 53.6 °F - 48.2 °F 82% 29.89 in 5.0 mi ENE 12.7 mph - 0.02 in Rain Light Rain
2:53 AM 51.1 °F - 48.9 °F 92% 29.73 in 10.0 mi North 8.1 mph - 0.03 in   Clear
3:53 AM 48.9 °F - 48.0 °F 97% 29.74 in 9.0 mi South 4.6 mph - N/A   Clear
4:53 AM 46.9 °F - 46.0 °F 97% 29.73 in 6.0 mi Calm Calm - N/A   Partly Cloudy
5:53 AM 46.4 °F 42.9 °F 44.6 °F 93% 29.88 in 10.0 mi NW 6.9 mph - N/A   Clear
6:53 AM 51.1 °F - 48.9 °F 92% 29.75 in 10.0 mi Calm Calm - N/A   Partly Cloudy
7:36 AM 53.6 °F - 50.0 °F 88% 29.89 in 10.0 mi Calm Calm - N/A   Scattered Clouds
7:53 AM 54.0 °F - 50.0 °F 86% 29.75 in 10.0 mi Calm Calm - N/A   Partly Cloudy
8:53 AM 57.0 °F - 51.1 °F 81% 29.75 in 10.0 mi NNW 3.5 mph - N/A   Clear
9:53 AM 60.1 °F - 52.0 °F 75% 29.73 in 10.0 mi NNW 4.6 mph - N/A   Partly Cloudy
10:53 AM 64.0 °F - 51.1 °F 63% 29.73 in 10.0 mi Calm Calm - N/A   Clear
11:53 AM 66.0 °F - 48.0 °F 52% 29.70 in 10.0 mi Calm Calm - N/A   Clear
12:53 PM 68.0 °F - 48.2 °F 49% 29.85 in 10.0 mi South 3.5 mph - N/A   Clear
1:53 PM 75.9 °F - 37.0 °F 24% 29.64 in 10.0 mi South 16.1 mph 20.7 mph N/A   Clear
2:53 PM 78.1 °F - 26.1 °F 15% 29.63 in 10.0 mi South 24.2 mph 34.5 mph N/A   Clear
3:53 PM 78.1 °F - 25.0 °F 14% 29.61 in 10.0 mi SSW 21.9 mph 33.4 mph N/A   Clear
4:53 PM 80.1 °F - 25.0 °F 13% 29.59 in 10.0 mi SSW 25.3 mph 36.8 mph N/A   Clear
5:53 PM 78.1 °F - 21.9 °F 12% 29.60 in 10.0 mi SSW 25.3 mph 34.5 mph N/A   Clear
6:53 PM 75.0 °F - 21.9 °F 14% 29.61 in 10.0 mi SW 15.0 mph 23.0 mph N/A   Clear
7:26 PM 71.6 °F - 30.2 °F 22% 29.80 in 10.0 mi West 18.4 mph 27.6 mph N/A   Clear
7:53 PM 68.0 °F - 32.0 °F 26% 29.66 in 10.0 mi NW 21.9 mph 28.8 mph N/A   Clear
8:53 PM 59.0 °F - 48.9 °F 69% 29.73 in 10.0 mi North 8.1 mph - N/A   Clear
9:53 PM 55.0 °F - 46.0 °F 72% 29.75 in 10.0 mi NW 8.1 mph - N/A   Clear
10:53 PM 53.1 °F - 45.0 °F 74% 29.77 in 10.0 mi Calm Calm - N/A   Clear
11:53 PM 50.0 °F - 45.0 °F 83% 29.79 in 10.0 mi Calm Calm - N/A   Clear